sat.trackr.live / text

‹ back to catalog

STARLINK-37171

NORAD 68665 · 2026-077D

PAYLOAD ACTIVE UNKNOWN

§ Identity

Operator
Country
US
Launch date
2026-04-11
Launch site
AFWTR
Launch vehicle
Mass (kg)
RCS (m²)

Purposes: comms

External: N2YO · Heavens-Above · Gunter

§ Orbital elements

Epoch: 2026-09-20T01:40:24.976128Z

Period
93.91 min
Inclination
97.2869°
Eccentricity
0.0002312
Mean motion
15.33445072 rev/d
Perigee alt
464.0 km
Apogee alt
467.1 km
Semi-major
6,843.7 km
B*
3.1679e-4
RAAN
132.9150°
Arg perigee
88.1308°
Mean anomaly
272.0199°
Rev number
2,494

§ Raw data

STARLINK-371711 68665U 26077D   26263.06973352  .00010166  00000+0  31679-3 0  99992 68665  97.2869 132.9150 0002312  88.1308 272.0199 15.33445072 24944

JSON: /api/v1/satellites/68665 · /tle

For live sub-satellite position, see the globe view (requires WebGL).

§ Visibility from observer

Set your observer location to see the next 7 days of passes ≥ 10°. The values pass through the URL so the page stays shareable.

No JS? Fill the form by hand. The geolocation button needs JavaScript.